Location: Ammerl�gen
(47.2167°N, 9.6000°E)
Time: 11:52:17
(UTC+00:00)

Cosmos 676 Rocket - Pass Details

Date: 05 August 2021
Orbit: 755 x 783 km, 74.0° (Epoch: 26 September)

Event Time Altitude Azimuth Distance (km) Brightness Sun altitude
Exits shadow 02:58:11 - 272° (W) 2,763 6.4 -10.4°
Reaches altitude 10° 03:00:08 10° 288° (WNW) 2,344 6.2 -10.2°
Maximum altitude 03:02:38 13° 316° (NW) 2,124 6.3 -9.8°
Drops below altitude 10° 03:05:08 10° 345° (NNW) 2,346 6.8 -9.5°
Sets 03:08:57 0° 12° (NNE) 3,275 8.1 -9.0°
